Terminal Aerodrome Forecast
Issued by NWS

Home | Current Version | Previous Version | Text Only | Print | Product List | Glossary On
Versions: 1 2 3 4 5 6 7 8 9 10 11 12 13 14 15 16 17
000
FTUS44 KTSA 251700
TAFRVS
TAF
KRVS 251737Z 2518/2618 18005KT P6SM SKC
      TEMPO 2608/2612 3SM BR
     FM261700 19012G18KT P6SM SKC=

USA.gov is the U.S. government's official web portal to all federal, state and local government web resources and services.